|
|
Comet P/2006 Y2 = 2012 K9 (GIBBS)
(Preview)
Orbital elements:
P/2006 Y2 = 2012 K9 (Gibbs)
Epoch 2012 June 2.0 TT = JDT 2456080.5
T 2012 May 20.86037 TT MPC
q 1.2633710 (2000.0) P Q
n 0.18405270 Peri. 34.48859 -0.75912895 -0.62187752
a 3.0608445 Node 105.87684 +0.54308322 -0.76796052
e 0.5872476 Incl. 11.53462 +0.35886468 -0.15331...
|
Blobrana
|
3
|
|
|
|
|
Comet 31P/Schwassmann-Wachmann 2
(Preview)
Comet 31P/Schwassmann-Wachmann 2 made its closest approach to the Earth (2.489 AU) on the 24th February, 2011. 31P/Schwassmann-Wachmann, also known as Schwassmann-Wachmann 2, is a periodic comet in our solar system. It was discovered on January 17, 1929, at an apparent magnitude of 11. [url=ht...
|
Blobrana
|
4
|
|
|
|
|
Comet P/2012 H1 (PANSTARRS)
(Preview)
Orbital elements:
P/2012 H1 (PANSTARRS)
Epoch 2011 Mar. 20.0 TT = JDT 2455640.5
T 2011 Mar. 19.27407 TT MPC
q 3.4799270 (2000.0) P Q
n 0.10679957 Peri. 25.85857 -0.88215338 -0.46136234
a 4.3996999 Node 126.34192 +0.40915923 -0.85024569
e 0.2090535 Incl. 6.74497 +0.23322552 -0.2534305...
|
Blobrana
|
5
|
|
|
|
|
Comet 182P/LONEOS
(Preview)
Comet 182P/LONEOS is at Perihelion (1.009 AU) on the 5th March, 2012
|
Blobrana
|
3
|
|
|
|
|
Comet P/2010 R2 (LA SAGRA)
(Preview)
Orbital elements:
P/2010 R2 (La Sagra)
T 2010 June 25.0979 TT MPC
q 2.622922 (2000.0) P Q
n 0.1806143 Peri. 59.3696 +0.8078131 +0.4629648
a 3.099569 Node 270.7569 -0.5825876 +0.7212030
e 0.153778 Incl. 21.3991 +0.0896084 +0.5152959
P 5.46
From 87 observations 2010 Aug. 12-Sept. 19. [ur...
|
Blobrana
|
7
|
|
|
|
|
Comet C/2012 F3 (PANSTARRS)
(Preview)
Orbital elements:
C/2012 F3 (PANSTARRS)
T 2015 Apr. 4.72233 TT MPC
q 3.4753235 (2000.0) P Q
Peri. 103.71916 -0.02341060 +0.99838636
Node 164.65506 -0.97607453 -0.01163609
e 1.0 Incl. 11.27415 -0.21617228 -0.05558127
From 10 observations 2012 Jan. 19-Mar. 17 MPEC 2012 - F32 Comet C/201...
|
Blobrana
|
4
|
|
|
|
|
Comet C/2012 S1 (ISON)
(
1 2 3 4
)
(Preview)
Orbital elements:
C/2012 S1 (ISON)
Epoch 2013 Dec. 14.0 TT = JDT 2456640.5
T 2013 Nov. 28.87041 TT MPC
q 0.0124527 (2000.0) P Q
z +0.0000029 Peri. 345.56137 +0.31509387 +0.51287068
+/-0.0002325 Node 295.65952 -0.75896421 -0.36901142
e 1.0000000 Incl. 62.36426 -0.56981504 +0.77510918...
|
Blobrana
|
38
|
|
|
|
|
Comet P/2000 O3 = 2005 W4 = 2011 E1 (SOHO)
(Preview)
Orbital elements:P/2011 E1
Epoch 2011 Mar. 20.0 TT = JDT 2455640.5
T 2011 Mar. 9.83663 TT MPC
q 0.0533979 (2000.0) P Q
n 0.18553060 Peri. 57.25585 -0.19320163 -0.96806317
a 3.0445681 Node 44.78691 +0.80714017 -0.24939833
e 0.9824613 Incl. 13.10849 +0.55785113 +0.02557677
P 5.31
From 1...
|
Blobrana
|
1
|
|
|
|
|
Comet C/2010 S1 (LINEAR)
(Preview)
Orbital elements: C/2010 S1 (LINEAR) T 2013 May 19.9695 TT MPC q 5.905842 (2000.0) P Q Peri. 118.5400 +0.5359915 -0.2229905 Node 93.4506 -0.6945370 -0.6647686 e 1.0 Incl. 125.3414 +0.4799286 -0.7129922 From 190 observations 2010 Sept. 21-Oct. 21. [url=http://www.minorplanetcenter.org/mp...
|
Blobrana
|
8
|
|
|
|
|
Comet P/2011 W2 (RINNER)
(Preview)
Orbital elements:
P/2011 W2 (Rinner)
T 2011 Oct. 10.61611 TT MPC
q 2.3155627 (2000.0) P Q
n 0.09534921 Peri. 210.50411 +0.11249438 -0.97375139
a 4.7452378 Node 233.75774 +0.95400674 +0.16153178
e 0.5120239 Incl. 14.20186 +0.27787796 -0.16036122
P 10.3
From 48 observations 2011 Nov....
|
Blobrana
|
4
|
|
|
|
|
Comet P/2012 F5 (GIBBS)
(
1 2
)
(Preview)
Orbital elements:
P/2012 F5 (Gibbs)
T 2010 Sept. 15.26927 TT MPC
q 1.8765223 (2000.0) P Q
n 0.18525890 Peri. 189.59248 +0.82169376 -0.56111688
a 3.0475441 Node 205.35004 +0.53713964 +0.82100508
e 0.3842510 Incl. 13.48443 +0.19052657 +0.10534945
P 5.32
From 45 observations 2012 Mar....
|
Blobrana
|
10
|
|
|
|
|
Comet 238P/Read
(Preview)
Comet 238P/Read is at Perihelion (2.360 AU) on the 10th March, 2011.
|
Blobrana
|
3
|
|
|
|
|
Comet P/2003 T12 = 2012 A3 (SOHO)
(Preview)
Orbital elements:
P/2003 T12 = 2012 A3 (SOHO)
Epoch 2012 Feb. 3.0 TT = JDT 2455960.5
T 2012 Jan. 26.53754 TT MPC
q 0.5769327 (2000.0) P Q
n 0.23941646 Peri. 217.70408 +0.82640143 -0.56295170
a 2.5686211 Node 176.49004 +0.55262665 +0.80675389
e 0.7753921 Incl. 11.38550 +0.10800216 +0.179...
|
Blobrana
|
6
|
|
|
|
|
Comet P/2012 WX32 (TENAGRA)
(Preview)
Orbital elements:
P/2012 WX32 (Tenagra)
T 2013 Feb. 26.55273 TT MPC
q 2.4206365 (2000.0) P Q
n 0.11178740 Peri. 39.75943 -0.49052963 -0.82955845
a 4.2678336 Node 81.17199 +0.71495071 -0.55819820
e 0.4328184 Incl. 15.66770 +0.49822301 -0.01573353
P 8.82
From 28 observations 2012 Nov...
|
Blobrana
|
5
|
|
|
|
|
Comet 176P/LINEAR
(Preview)
Comet 176P/LINEAR makes its closest approach to the Earth (1.955 AU) on the 1st August, 2010. Ephemeris Date TT R. A. (2000) Decl. Delta r Elong. Phase m1 m2 2010 08 01 20 12 18.5 -20 13 05 1.9552 2.9642 172.3 2.6 19.1 2010 08 02 20 11 29.6 -20 15 34 1.9554 2.9623 171.1 3.0 19.1 2010 08 03 20 10 41.0 -20 18 01 1.95...
|
Blobrana
|
8
|
|
|